Weather History for KCDJ - January, 2013

Change the Weather History Date:

Saturday, January 12, 2013

  Actual Average (KIRK) Record (KIRK)
Temperature  
Mean Temperature 40 °F 26 °F  
Max Temperature 55 °F 35 °F - ()
Min Temperature 21 °F 17 °F - ()
Degree Days  
Heating Degree Days 26 39  
Month to date heating degree days 468  
Since 1 July heating degree days 2811  
Cooling Degree Days 0 0  
Month to date cooling degree days 0  
Year to date cooling degree days 0  
Moisture  
Dew Point 18 °F    
Average Humidity 61    
Maximum Humidity 79    
Minimum Humidity 43    
Precipitation  
Precipitation 0.00 in 0.02 in - ()
Month to date precipitation 0.36  
Year to date precipitation 0.36  
Sea Level Pressure  
Sea Level Pressure 30.03 in    
Wind  
Wind Speed 9 mph (NW)    
Max Wind Speed 16 mph    
Max Gust Speed 26 mph    
T = Trace of Precipitation, MM = Missing Value Source: NWS Daily Summary

Daily Weather History Graph

Daily Weather History Graph

Search for Another Location

Airport or City:

Trip Planner

Search our weather history database for the weather conditions in past years. The results will help you decide how hot, cold, wet, or windy it might be!

Date:

Astronomy

Jan. 12, 2013 Rise Set
Actual Time 7:34 AM CST 5:11 PM CST
Civil Twilight 7:04 AM CST 5:40 PM CST
Nautical Twilight 6:31 AM CST 6:14 PM CST
Astronomical Twilight 5:59 AM CST 6:46 PM CST
Moon 7:54 AM CST (1/12) 6:40 PM CST (1/12)
Length of Visible Light 10h 36m
Length of Day
9h 36m
New Moon, 1% of the Moon is Illuminated
Jan 12
New Moon
Jan 18
First Quarter
Jan 26
Full
Feb 3
Last Quarter
Feb 10
New

Hourly Weather History & Observations

Time (CST) Temp. Windchill Dew Point Humidity Pressure Visibility Wind Dir Wind Speed Gust Speed Precip Events Conditions
12:52 AM 55.0 °F - 44.1 °F 67% 29.73 in - WSW 6.9 mph - N/A   Unknown
1:52 AM 51.1 °F - 28.9 °F 43% 29.78 in - West 9.2 mph - N/A   Unknown
2:52 AM 39.9 °F 32.1 °F 34.0 °F 79% 29.87 in - WNW 13.8 mph 26.5 mph N/A   Unknown
3:52 AM 36.0 °F 26.3 °F 30.0 °F 79% 29.92 in - NW 16.1 mph 24.2 mph N/A   Unknown
4:52 AM 34.0 °F 25.0 °F 27.0 °F 75% 29.95 in - WNW 12.7 mph 19.6 mph N/A   Unknown
5:52 AM 30.0 °F 21.7 °F 19.0 °F 64% 30.00 in - WNW 9.2 mph 18.4 mph N/A   Unknown
6:52 AM 28.0 °F 18.6 °F 17.1 °F 63% 30.04 in - WNW 10.4 mph 19.6 mph N/A   Unknown
7:52 AM 27.0 °F 18.7 °F 16.0 °F 63% 30.06 in - NW 8.1 mph - N/A   Unknown
8:52 AM 28.0 °F 18.6 °F 16.0 °F 61% 30.07 in - NW 10.4 mph - N/A   Unknown
9:52 AM 28.9 °F 21.1 °F 15.1 °F 56% 30.09 in - NW 8.1 mph 16.1 mph N/A   Unknown
10:52 AM 30.0 °F 23.2 °F 14.0 °F 51% 30.12 in - NW 6.9 mph - N/A   Unknown
11:52 AM 30.9 °F 22.8 °F 16.0 °F 54% 30.08 in - NW 9.2 mph - N/A   Unknown
12:52 PM 30.0 °F 21.7 °F 12.9 °F 49% 30.06 in - NW 9.2 mph - N/A   Unknown
1:52 PM 28.9 °F 21.1 °F 12.9 °F 51% 30.09 in - NW 8.1 mph - N/A   Unknown
2:52 PM 28.9 °F 22.8 °F 12.9 °F 51% 30.09 in - Variable 5.8 mph - N/A   Unknown
3:52 PM 28.9 °F 21.1 °F 14.0 °F 54% 30.06 in - NNW 8.1 mph - N/A   Unknown
4:52 PM 28.9 °F 22.8 °F 14.0 °F 54% 30.07 in - North 5.8 mph - N/A   Unknown
5:52 PM 28.9 °F - 15.1 °F 56% 30.13 in - Calm Calm - N/A   Unknown
6:52 PM 26.1 °F 17.6 °F 15.1 °F 63% 30.10 in - NNW 8.1 mph - N/A   Unknown
7:52 PM 25.0 °F 14.8 °F 14.0 °F 63% 30.11 in - NNW 10.4 mph - N/A   Unknown
8:52 PM 25.0 °F 17.1 °F 12.9 °F 60% 30.11 in - Variable 6.9 mph - N/A   Unknown
9:52 PM 24.1 °F 18.2 °F 15.1 °F 69% 30.10 in - NNW 4.6 mph - N/A   Unknown
10:52 PM 24.1 °F 13.1 °F 12.9 °F 62% 30.08 in - North 11.5 mph - N/A   Unknown
11:52 PM 21.9 °F 14.5 °F 12.0 °F 66% 30.12 in - NNW 5.8 mph - N/A   Unknown